La Porte, IN

6:22 AM CDT on May 25, 2018 (GMT -0500)
La Porte Municipal

Weather History for KPPO - July, 2013

Change the Weather History Date:

Thursday, July 4, 2013

  Actual Average (KSBN) Record (KSBN)
Temperature  
Mean Temperature 65 °F -  
Max Temperature 76 °F 82 °F 100 °F (2012)
Min Temperature 55 °F 62 °F 44 °F (1917)
Growing Degree Days 15 (Base 50)    
Moisture  
Dew Point 60 °F    
Average Humidity 82    
Maximum Humidity 100    
Minimum Humidity 60    
Precipitation  
Precipitation 0.00 in - - ()
Sea Level Pressure  
Sea Level Pressure 30.12 in    
Wind  
Wind Speed 2 mph (South)    
Max Wind Speed 7 mph    
Max Gust Speed -    
Visibility 6 miles    
Events Fog    
Averages and records for this station are not official NWS values.
T = Trace of Precipitation, MM = Missing Value Source: NWS Daily Summary

Daily Weather History Graph

Daily Weather History Graph

Search for Another Location

Airport or City:

Astronomy

Jul. 04, 2013 Rise Set
Actual Time 5:18 AM CDT 8:24 PM CDT
Civil Twilight 4:44 AM CDT 8:57 PM CDT
Nautical Twilight 4:01 AM CDT 9:40 PM CDT
Astronomical Twilight 3:10 AM CDT 10:31 PM CDT
Moon 2:35 AM CDT (7/4) 5:27 PM CDT (7/4)
Length of Visible Light 16h 13m
Length of Day
15h 05m
Waning Crescent, 11% of the Moon is Illuminated
Jul 4
Waning Crescent
Jul 8
New
Jul 15
First Quarter
Jul 22
Full
Jul 29
Last Quarter

Hourly Weather History & Observations

Time (CDT) Temp. Dew Point Humidity Pressure Visibility Wind Dir Wind Speed Gust Speed Precip Events Conditions
12:15 AM 61.3 °F 61.3 °F 100% 30.11 in 2.0 mi Calm Calm - N/A   Scattered Clouds
12:35 AM 59.5 °F 59.5 °F 100% 30.10 in 0.5 mi Calm Calm - N/A Fog Fog
12:55 AM 59.5 °F 59.5 °F 100% 30.11 in 0.5 mi Calm Calm - N/A Fog Fog
1:15 AM 58.5 °F 58.5 °F 100% 30.11 in 0.2 mi Calm Calm - N/A Fog Fog
1:35 AM 58.1 °F 58.1 °F 100% 30.10 in 0.2 mi Calm Calm - N/A Fog Fog
1:55 AM 56.1 °F 56.1 °F 100% 30.10 in 0.2 mi Calm Calm - N/A Fog Fog
2:15 AM 56.3 °F 56.3 °F 100% 30.10 in 0.2 mi Calm Calm - N/A Fog Fog
2:35 AM 55.6 °F 55.6 °F 100% 30.10 in 0.2 mi Calm Calm - N/A Fog Fog
2:55 AM 55.6 °F 55.6 °F 100% 30.10 in 0.2 mi Calm Calm - N/A Fog Fog
3:15 AM 55.2 °F 55.2 °F 100% 30.11 in 0.2 mi Calm Calm - N/A Fog Fog
3:35 AM 55.2 °F 55.2 °F 100% 30.11 in 0.2 mi Calm Calm - N/A Fog Fog
3:55 AM 55.8 °F 55.8 °F 100% 30.11 in 0.2 mi Calm Calm - N/A Fog Fog
4:15 AM 56.3 °F 56.3 °F 100% 30.11 in 0.2 mi Calm Calm - N/A Fog Fog
4:35 AM 56.3 °F 56.3 °F 100% 30.11 in 0.2 mi Calm Calm - N/A Fog Fog
4:55 AM 56.3 °F 56.3 °F 100% 30.12 in 0.2 mi Calm Calm - N/A Fog Fog
5:15 AM 55.9 °F 55.9 °F 100% 30.12 in 0.2 mi Calm Calm - N/A Fog Fog
5:35 AM 55.6 °F 55.6 °F 100% 30.13 in 0.2 mi Calm Calm - N/A Fog Fog
5:55 AM 55.6 °F 55.6 °F 100% 30.13 in 0.2 mi Calm Calm - N/A Fog Fog
6:15 AM 56.3 °F 56.3 °F 100% 30.13 in 0.2 mi Calm Calm - N/A Fog Fog
6:35 AM 57.0 °F 57.0 °F 100% 30.13 in 0.2 mi Calm Calm - N/A Fog Fog
6:55 AM 58.1 °F 58.1 °F 100% 30.14 in 0.2 mi Calm Calm - N/A Fog Fog
7:15 AM 59.4 °F 59.4 °F 100% 30.14 in 0.2 mi SSE 3.5 mph - N/A Fog Fog
7:35 AM 61.0 °F 61.0 °F 100% 30.14 in 2.5 mi Calm Calm - N/A   Scattered Clouds
7:55 AM 62.6 °F 62.6 °F 100% 30.15 in 5.0 mi Calm Calm - N/A   Clear
8:15 AM 63.7 °F 63.7 °F 100% 30.14 in 7.0 mi WSW 5.8 mph - N/A   Clear
8:35 AM 65.1 °F 65.1 °F 100% 30.15 in 7.0 mi SW 3.5 mph - N/A   Clear
8:55 AM 66.6 °F 66.6 °F 100% 30.15 in 10.0 mi SW 3.5 mph - N/A   Scattered Clouds
9:15 AM 68.2 °F 64.0 °F 87% 30.15 in 10.0 mi WSW 5.8 mph - N/A   Clear
9:35 AM 70.2 °F 61.2 °F 73% 30.15 in 10.0 mi SSW 4.6 mph - N/A   Clear
9:55 AM 71.4 °F 61.2 °F 70% 30.15 in 10.0 mi SW 3.5 mph - N/A   Clear
10:15 AM 72.5 °F 61.5 °F 68% 30.15 in 10.0 mi South 5.8 mph - N/A   Mostly Cloudy
10:35 AM 73.8 °F 61.2 °F 65% 30.15 in 10.0 mi South 4.6 mph - N/A   Mostly Cloudy
10:55 AM 73.4 °F 60.4 °F 64% 30.15 in 10.0 mi SSW 4.6 mph - N/A   Scattered Clouds
11:15 AM 73.8 °F 60.6 °F 63% 30.15 in 10.0 mi Calm Calm - N/A   Scattered Clouds
11:35 AM 74.7 °F 60.8 °F 62% 30.15 in 10.0 mi SSE 4.6 mph - N/A   Clear
11:55 AM 74.3 °F 60.1 °F 61% 30.15 in 10.0 mi SSW 4.6 mph - N/A   Clear
12:15 PM 74.5 °F 60.1 °F 61% 30.15 in 10.0 mi South 6.9 mph - N/A   Scattered Clouds
12:35 PM 74.7 °F 60.1 °F 60% 30.14 in 10.0 mi SW 5.8 mph - N/A   Clear
12:55 PM 74.8 °F 60.6 °F 61% 30.14 in 10.0 mi South 5.8 mph - N/A   Clear
1:15 PM 74.7 °F 60.4 °F 61% 30.14 in 10.0 mi South 4.6 mph - N/A   Scattered Clouds
1:35 PM 74.8 °F 60.8 °F 62% 30.14 in 10.0 mi South 5.8 mph - N/A   Clear
1:55 PM 75.2 °F 60.8 °F 61% 30.13 in 10.0 mi South 4.6 mph - N/A   Clear
2:15 PM 75.2 °F 61.0 °F 61% 30.13 in 10.0 mi South 5.8 mph - N/A   Clear
2:35 PM 75.6 °F 61.3 °F 61% 30.13 in 10.0 mi South 5.8 mph - N/A   Scattered Clouds
2:55 PM 75.9 °F 62.4 °F 63% 30.13 in 10.0 mi SW 5.8 mph - N/A   Scattered Clouds
3:15 PM 75.4 °F 61.5 °F 62% 30.12 in 10.0 mi SSE 6.9 mph - N/A   Clear
3:35 PM 75.6 °F 61.0 °F 60% 30.12 in 10.0 mi SSE 6.9 mph - N/A   Clear
3:55 PM 75.2 °F 61.5 °F 62% 30.11 in 10.0 mi South 5.8 mph - N/A   Clear
4:15 PM 74.8 °F 60.8 °F 62% 30.11 in 10.0 mi South 4.6 mph - N/A   Clear
4:35 PM 74.5 °F 60.8 °F 62% 30.11 in 10.0 mi South 5.8 mph - N/A   Clear
4:55 PM 74.3 °F 60.6 °F 62% 30.10 in 10.0 mi South 5.8 mph - N/A   Clear
5:15 PM 74.3 °F 61.5 °F 64% 30.10 in 10.0 mi South 5.8 mph - N/A   Clear
5:35 PM 74.3 °F 61.5 °F 64% 30.10 in 10.0 mi South 3.5 mph - N/A   Clear
5:55 PM 73.9 °F 60.8 °F 63% 30.10 in 10.0 mi SSW 3.5 mph - N/A   Clear
6:15 PM 73.9 °F 61.0 °F 64% 30.10 in 10.0 mi South 4.6 mph - N/A   Clear
6:35 PM 73.4 °F 61.3 °F 66% 30.10 in 10.0 mi South 4.6 mph - N/A   Clear
6:55 PM 73.4 °F 61.5 °F 66% 30.10 in 10.0 mi South 4.6 mph - N/A   Clear
7:15 PM 72.5 °F 61.9 °F 69% 30.09 in 10.0 mi South 3.5 mph - N/A   Clear
7:35 PM 71.6 °F 62.6 °F 73% 30.09 in 10.0 mi Calm Calm - N/A   Clear
7:55 PM 70.5 °F 63.9 °F 79% 30.09 in 10.0 mi Calm Calm - N/A   Clear
8:15 PM 69.3 °F 63.9 °F 83% 30.09 in 10.0 mi Calm Calm - N/A   Clear
8:35 PM 68.5 °F 63.7 °F 84% 30.09 in 10.0 mi Calm Calm - N/A   Clear
8:55 PM 66.7 °F 63.5 °F 89% 30.09 in 10.0 mi Calm Calm - N/A   Clear
9:15 PM 66.9 °F 63.9 °F 90% 30.10 in 10.0 mi Calm Calm - N/A   Clear
9:35 PM 66.2 °F 64.4 °F 94% 30.11 in 10.0 mi SSE 3.5 mph - N/A   Clear
9:55 PM 66.2 °F 64.2 °F 93% 30.11 in 5.0 mi Calm Calm - N/A   Clear
10:15 PM 66.4 °F 64.0 °F 92% 30.11 in 5.0 mi SSE 3.5 mph - N/A   Clear
10:35 PM 66.2 °F 63.3 °F 90% 30.11 in 7.0 mi Calm Calm - N/A   Clear
10:55 PM 65.1 °F 61.7 °F 89% 30.10 in 5.0 mi Calm Calm - N/A   Clear
11:15 PM 63.1 °F 61.7 °F 95% 30.11 in 4.0 mi Calm Calm - N/A   Clear
11:35 PM 61.9 °F 61.3 °F 98% 30.11 in 3.0 mi North 3.5 mph - N/A   Scattered Clouds
11:55 PM 60.8 °F 60.6 °F 99% 30.10 in 2.5 mi Calm Calm - N/A   Mist